De Queen, AR

8:09 AM CDT on April 26, 2017 (GMT -0500)
Helms Sevier County

Weather History for KDEQ - January, 2013

Change the Weather History Date:

Sunday, January 27, 2013

  Actual Average Record
Temperature  
Mean Temperature 54 °F 42 °F  
Max Temperature 65 °F 54 °F 75 °F (1970)
Min Temperature 43 °F 29 °F 7 °F (1963)
Degree Days  
Heating Degree Days 11 23  
Month to date heating degree days 586 638  
Since 1 July heating degree days 1716 1847  
Cooling Degree Days 0 0  
Month to date cooling degree days 0 0  
Year to date cooling degree days 0 0  
Growing Degree Days 4 (Base 50)    
Moisture  
Dew Point 49 °F    
Average Humidity 92    
Maximum Humidity 100    
Minimum Humidity 84    
Precipitation  
Precipitation T in 0.11 in 1.47 in (1994)
Month to date precipitation 1.30 2.88  
Year to date precipitation 1.30 2.88  
Snow  
Snow 0.00 in - - ()
Month to date snowfall T  
Since 1 July snowfall 4.5  
Snow Depth 0.00 in    
Sea Level Pressure  
Sea Level Pressure 30.10 in    
Wind  
Wind Speed 6 mph (East)    
Max Wind Speed 12 mph    
Max Gust Speed 16 mph    
Visibility 3 miles    
Events Fog    
T = Trace of Precipitation, MM = Missing Value Source: NWS Daily Summary

Daily Weather History Graph

Daily Weather History Graph

Search for Another Location

Airport or City:

Trip Planner

Search our weather history database for the weather conditions in past years. The results will help you decide how hot, cold, wet, or windy it might be!

Date:

Astronomy

Jan. 27, 2013 Rise Set
Actual Time 7:17 AM CST 5:43 PM CST
Civil Twilight 6:51 AM CST 6:09 PM CST
Nautical Twilight 6:21 AM CST 6:40 PM CST
Astronomical Twilight 5:51 AM CST 7:09 PM CST
Moon 6:33 PM CST (1/27) 7:15 AM CST (1/27)
Length of Visible Light 11h 18m
Length of Day
10h 25m
Full, 100% of the Moon is Illuminated
Jan 27
Full
Feb 3
Last Quarter
Feb 10
New
Feb 17
First Quarter
Feb 25
Full

Hourly Weather History & Observations

Time (CST) Temp. Windchill Dew Point Humidity Pressure Visibility Wind Dir Wind Speed Gust Speed Precip Events Conditions
12:38 AM 43.0 °F 37.2 °F 41.0 °F 93% 30.17 in 1.8 mi East 10.4 mph - N/A   Overcast
12:53 AM 43.0 °F 38.2 °F 42.1 °F 97% 30.17 in 1.5 mi East 8.1 mph - N/A   Overcast
1:53 AM 43.0 °F 38.2 °F 42.1 °F 97% 30.17 in 1.0 mi East 8.1 mph - N/A   Overcast
2:19 AM 43.0 °F 40.3 °F 42.1 °F 97% 30.18 in 0.8 mi East 4.6 mph - N/A   Overcast
2:53 AM 43.0 °F 38.8 °F 42.1 °F 97% 30.17 in 0.8 mi East 6.9 mph - N/A   Overcast
3:53 AM 43.0 °F 39.5 °F 42.1 °F 97% 30.16 in 0.5 mi East 5.8 mph - N/A Fog Fog
4:53 AM 43.0 °F 39.5 °F 42.1 °F 97% 30.14 in 0.8 mi East 5.8 mph - N/A   Mist
5:53 AM 43.0 °F 39.5 °F 43.0 °F 100% 30.14 in 0.8 mi East 5.8 mph - N/A   Overcast
6:09 AM 43.0 °F 40.3 °F 43.0 °F 100% 30.15 in 1.0 mi ENE 4.6 mph - N/A   Overcast
6:16 AM 43.0 °F 40.3 °F 43.0 °F 100% 30.15 in 0.8 mi East 4.6 mph - N/A   Overcast
6:53 AM 43.0 °F 39.5 °F 43.0 °F 100% 30.16 in 0.5 mi East 5.8 mph - N/A Fog Fog
7:15 AM 44.1 °F 40.1 °F 43.0 °F 96% 30.16 in 0.2 mi East 6.9 mph - N/A Fog Fog
7:53 AM 44.1 °F 40.8 °F 43.0 °F 96% 30.16 in 0.2 mi East 5.8 mph - N/A Fog Fog
8:53 AM 45.0 °F 41.8 °F 44.1 °F 97% 30.17 in 0.2 mi East 5.8 mph - 0.00 in Fog Fog
9:53 AM 46.0 °F 41.9 °F 45.0 °F 96% 30.17 in 0.2 mi East 8.1 mph - N/A Fog Fog
10:29 AM 46.9 °F - 46.0 °F 97% 30.16 in 0.5 mi ESE 6.9 mph - N/A Fog Fog
10:49 AM 48.2 °F - 46.4 °F 93% 30.16 in 1.2 mi East 3.5 mph - N/A   Overcast
10:53 AM 48.9 °F - 48.0 °F 97% 30.16 in 1.8 mi ESE 4.6 mph - N/A   Overcast
11:09 AM 48.9 °F - 48.0 °F 97% 30.16 in 2.0 mi ENE 4.6 mph - N/A   Overcast
11:53 AM 51.1 °F - 50.0 °F 96% 30.13 in 2.5 mi ESE 4.6 mph - N/A   Overcast
12:27 PM 53.1 °F - 51.1 °F 93% 30.12 in 2.5 mi SSE 5.8 mph - N/A   Overcast
12:37 PM 53.1 °F - 51.1 °F 93% 30.11 in 3.0 mi SE 9.2 mph - N/A   Overcast
12:53 PM 54.0 °F - 51.1 °F 90% 30.09 in 4.0 mi SSE 9.2 mph - N/A   Overcast
1:53 PM 55.9 °F - 52.0 °F 87% 30.06 in 4.0 mi South 5.8 mph - N/A   Overcast
2:53 PM 57.0 °F - 53.1 °F 87% 30.04 in 4.0 mi ESE 4.6 mph - N/A   Overcast
3:53 PM 59.0 °F - 55.0 °F 87% 30.02 in 4.0 mi ESE 6.9 mph - N/A   Overcast
4:12 PM 60.1 °F - 55.0 °F 83% 30.01 in 4.0 mi ESE 6.9 mph - N/A   Haze
4:53 PM 61.0 °F - 55.0 °F 81% 30.00 in 5.0 mi East 5.8 mph - N/A   Haze
5:53 PM 57.9 °F - 55.0 °F 90% 29.99 in 5.0 mi East 4.6 mph - N/A   Partly Cloudy
6:53 PM 57.0 °F - 55.0 °F 93% 30.00 in 5.0 mi East 5.8 mph - N/A   Overcast
7:53 PM 59.0 °F - 55.9 °F 90% 30.01 in 7.0 mi East 4.6 mph - N/A   Overcast
8:53 PM 60.1 °F - 57.0 °F 90% 30.00 in 8.0 mi East 4.6 mph - N/A   Overcast
9:53 PM 60.1 °F - 57.0 °F 90% 30.00 in 7.0 mi ENE 3.5 mph - N/A   Overcast
10:53 PM 64.9 °F - 59.0 °F 81% 30.00 in 10.0 mi South 10.4 mph - N/A   Overcast
11:53 PM 64.9 °F - 60.1 °F 84% 30.01 in 10.0 mi South 6.9 mph - N/A   Overcast